Location: Aufkirchen
(47.9603°N, 11.3653°E)
Time: 17:13:32
(UTC+01:00)

Transit 2A - Pass Details

Date: 03 December 2020
Orbit: 599 x 960 km, 66.7° (Epoch: 26 January)

Event Time Altitude Azimuth Distance (km) Brightness Sun altitude
Rises 17:33:00 0° 232° (SW) 3,619 11.1 -11.3°
Reaches altitude 10° 17:35:41 10° 237° (WSW) 2,657 10.2 -11.7°
Maximum altitude 17:41:43 49° 312° (NW) 1,152 7.1 -12.7°
Drops below altitude 10° 17:47:22 10° 27° (NNE) 2,493 8.2 -13.6°
Enters shadow 17:47:39 - 28° (NNE) 2,589 8.3 -13.6°
Sets 17:49:50 0° 33° (NNE) 3,377 - -13.9°
